STARLINK-1551, 46075

Orbit data source: Space-Track

STARLINK-1551, 46075 is a payload satellite owned by SpaceX/Seattle (US) in LEO that was launched on Fri, 07 Aug 2020 UTC via an FALCON 9 launch vehicle from the Air Force Eastern Test Range (AFETR). Payload-class satellites include a variety of spacecraft equipped with specific instruments for various scientific and technological missions. These include communications satellites like Starlink; space stations such as the ISS; scientific satellites like the Hubble; Earth observation satellites from companies like Planet Labs, Umbra, and HawkEye 360; GPS; miniature CubeSats for education and research; and military/defense satellites.

Loading next visibility...
Identifier
46075, 2020-055BA
Orbit
LEO
Country
Flag of USUS
Related business
Manufacturer
SpaceX/Seattle
Mission
Operational Commercial Communications
Bus & Motor
STARLINK, Unknown motor
Mass
260 kg wet, ~248 kg dry
Launch date (UTC)
2020-08-07 (6 years ago)
Launch vehicle
FALCON 9
Launch site
Air Force Eastern Test Range (AFETR)
Object type
Payload
Rocket body
Debris
Shape & HBR
Box + 1 Pan, 10.1 m
Radar Cross Section
13.562 m², Large (>1 m²)

Expand to show TLE details & history
Last TLE update: 6 hours ago

TLE from 6 hours ago
0 STARLINK-1551
1 46075U 20055BA  26127.19592291 -.00000649  00000-0 -97874-5 0  9991
2 46075  53.1586 189.3063 0001920  88.1191 272.0029 15.30199558318192
Epoch: 2026-05-07T04:42Z
TLE epoch observation values (Epoch: 2026-05-07T04:42:07.739Z)
Latitude
-0.00007°
Longitude
-106.27153°
Altitude
476.07 km
Speed
7.629 km/s
True Right ascension
12h 37m 13s
True Declination
0° 00' 00"
Sunlit
Object was in full shadow at epoch
Visualization orbit readout
Latitude
Unknown
Longitude
Unknown
Altitude
Unknown
Speed
Unknown
Apparent Right ascension
Unknown
Apparent Declination
Unknown
Sunlit
N/A
Visualization observer readout
Local Sidereal Time
19:08:41
Azimuth
Unknown
Elevation
Unknown
Doppler factor
Unknown
Orbital elements
Apogee altitude
476.789 km
Perigee altitude
474.157 km
Semi-major axis
6,853.61 km
Eccentricity
0.00019
Inclination
53.1586°
RAAN
189.3063°
Arg. of periapsis
88.1191°
True anomaly
271.98091°
Mean anomaly
272.0029°
Eccentric anomaly
271.99191°
Mean motion
3.82529 °/min
Orbital period
94.11 mins
BSTAR
-0.0000097874
Loading maneuver chart data...
Computing Atmospheric mass density...

Documentation

Showing up to 5 results
|